Theta_e
354 353 353 353 352 353 353 353 350 345 341 339 337 336 335 335 333 334 336 337 336 334 332 332 332 332 331 332 331 332 332 332 331 330 331 332 331 330 330 329 329 330 330 330 331 332 333 334 335 334 334 334 334 335 335 334 333 330 330 327 323 322 324 324 326 327 325 324 324 324 324 323 323 324 324 324 323 322 318 315 315 316 316 316 316
353 353 352 352 351 352 352 352 349 344 341 339 337 335 334 334 334 334 335 336 335 333 332 332 333 333 333 333 333 334 333 332 331 331 331 332 331 329 328 328 329 329 329 330 330 332 334 335 335 334 333 332 332 333 334 334 334 331 330 327 324 323 324 324 325 326 325 324 324 324 324 323 323 324 324 323 323 321 317 315 315 315 315 316 317
352 352 351 351 351 350 351 352 348 343 341 340 337 335 335 335 335 335 335 335 334 332 332 333 334 334 335 334 335 334 334 332 331 331 331 330 329 329 329 329 329 329 329 330 331 332 334 335 334 333 332 331 330 331 332 333 333 332 331 328 325 325 325 324 324 324 324 325 325 324 324 324 323 323 323 323 323 320 316 314 314 315 316 316 317
352 351 351 349 349 349 349 349 346 343 341 340 337 334 335 336 336 335 335 335 334 333 334 334 335 335 335 335 335 334 333 332 331 330 329 329 329 329 329 329 329 329 329 330 331 332 333 333 332 330 330 329 328 327 329 331 332 332 331 330 328 327 326 325 324 324 324 325 325 325 324 324 323 323 323 324 322 318 315 315 315 316 317 317 317
352 350 350 349 348 347 347 346 344 342 341 340 337 334 335 337 337 336 336 336 336 335 334 334 334 335 335 335 334 333 333 332 331 330 329 329 329 329 330 329 329 329 329 329 329 329 330 330 329 329 329 328 326 325 325 327 329 331 331 331 330 329 328 327 326 324 323 324 325 325 325 324 324 324 323 324 322 318 315 315 315 317 317 317 318
352 350 349 348 347 346 345 343 341 341 341 340 338 336 336 338 337 337 337 337 338 337 335 334 333 334 334 334 334 333 333 333 331 330 329 329 329 330 330 329 329 329 329 328 327 327 328 329 329 329 328 327 326 326 326 325 326 328 330 331 331 330 329 328 327 325 324 324 324 325 325 325 324 324 324 324 323 321 319 317 317 318 318 318 318
351 349 348 347 346 344 343 341 341 342 341 339 338 337 338 338 338 338 338 339 339 338 336 335 334 333 333 334 334 334 334 333 332 330 329 330 330 331 330 330 329 329 329 328 328 328 328 328 329 329 329 328 327 327 327 327 327 327 328 329 330 330 330 329 328 326 325 324 324 325 325 325 325 324 324 324 324 322 320 319 319 319 318 319 319
351 349 348 347 346 344 343 342 342 342 341 339 338 338 338 338 339 339 340 340 339 338 336 336 334 333 334 334 335 335 334 333 331 330 330 331 331 331 331 330 329 328 329 329 329 329 328 328 328 329 330 330 329 328 328 328 329 328 328 328 329 329 330 329 328 327 325 325 325 326 326 325 325 325 325 325 324 322 318 318 319 319 319 319 319
352 350 348 347 346 344 343 342 340 340 339 337 338 338 338 339 339 339 340 340 339 338 337 336 334 333 334 335 335 334 332 331 331 331 332 332 332 333 332 331 329 328 329 329 329 328 328 328 328 328 329 330 329 329 328 328 328 329 329 329 329 330 329 329 328 328 327 326 326 326 326 326 325 325 325 325 324 322 319 318 319 320 319 320 319
352 350 349 347 346 345 344 341 339 339 338 337 337 338 338 339 339 339 340 340 339 338 338 337 335 334 335 336 336 334 332 330 331 332 333 333 334 334 334 332 330 329 329 329 329 329 328 328 328 328 329 329 328 327 327 326 327 328 329 330 330 330 330 329 329 328 327 327 327 326 326 326 326 326 326 325 324 322 320 319 320 320 320 320 320
352 350 349 348 347 346 343 339 338 338 338 338 337 337 337 338 339 339 339 340 339 339 339 338 336 335 336 337 336 334 332 331 331 331 332 333 334 334 335 334 333 330 329 329 329 329 329 328 327 328 328 327 326 326 326 327 327 328 329 329 329 329 329 329 329 328 328 327 326 325 326 326 326 325 325 324 323 323 321 319 320 320 320 321 321
351 350 349 348 347 344 340 337 336 337 337 335 334 334 335 337 338 339 339 339 339 338 340 339 334 332 336 339 337 335 333 332 331 331 331 332 333 334 334 335 335 333 331 329 330 330 329 328 327 327 326 325 326 327 327 327 327 328 328 328 327 327 327 327 328 328 327 326 326 325 326 326 326 325 324 324 323 323 321 320 320 320 320 321 321
351 348 346 346 345 342 339 337 336 335 334 331 331 333 334 333 334 336 338 339 338 338 340 339 333 331 337 339 337 336 334 332 332 331 331 332 333 333 334 334 335 335 333 330 330 329 328 327 327 326 325 325 326 328 328 328 328 328 327 326 326 326 326 326 326 326 326 326 326 326 326 326 325 325 324 324 323 323 322 321 320 320 320 320 320
349 346 344 343 342 341 338 337 336 335 334 332 331 331 330 329 329 332 336 338 338 338 339 339 338 337 339 338 336 336 335 333 332 332 332 333 333 333 334 334 335 335 333 331 329 328 327 326 327 326 326 326 326 327 327 327 328 328 327 326 326 325 326 326 326 326 325 325 325 326 326 325 325 324 324 324 323 322 322 321 320 320 320 320 319
348 344 342 341 341 340 339 338 337 337 334 330 328 326 325 326 328 330 333 334 335 334 335 336 338 338 338 338 336 336 335 334 333 332 332 332 332 333 334 335 335 334 332 331 329 327 326 326 326 327 327 326 325 324 324 325 326 327 326 326 326 326 326 327 326 325 324 324 325 325 325 325 324 324 323 323 323 322 320 320 319 319 319 319 319
345 343 341 340 340 340 338 336 335 333 329 325 324 322 321 322 323 325 328 329 329 329 331 334 335 336 337 337 336 336 336 335 334 332 332 332 333 334 335 334 334 332 331 330 328 327 327 326 327 327 326 325 323 322 324 326 327 327 327 326 326 326 326 326 325 324 324 324 324 324 323 323 323 323 323 323 322 321 319 318 318 318 319 319 320
344 342 341 340 339 338 335 332 330 329 327 325 324 323 323 322 321 322 324 323 324 326 330 333 334 335 336 336 336 337 336 335 334 333 332 334 334 335 334 333 332 331 330 329 327 326 327 327 327 325 323 322 322 323 325 326 327 326 326 325 325 325 324 324 323 323 323 322 321 321 321 321 322 322 322 322 321 320 319 318 317 318 319 319 320
342 341 340 339 337 335 332 330 328 327 327 327 326 325 324 322 320 320 320 321 325 328 331 333 333 334 335 335 335 334 332 331 331 331 331 332 332 332 332 332 332 331 330 328 326 326 327 326 325 323 322 321 323 325 326 326 325 324 324 323 323 323 323 322 322 321 320 319 319 320 320 321 321 321 321 320 320 319 319 317 317 318 319 319 319
340 339 338 337 335 333 330 327 327 326 326 325 323 323 324 324 324 325 325 326 329 331 333 333 334 334 334 333 333 331 329 328 328 328 328 328 329 330 331 331 331 329 328 326 327 327 326 325 323 321 321 322 323 325 325 324 323 323 322 322 321 321 321 320 319 318 317 318 318 319 320 320 320 320 320 320 320 319 318 317 317 318 319 319 318
339 338 337 335 332 330 328 327 327 326 326 325 323 324 327 328 328 329 330 331 332 333 333 333 334 334 333 333 332 330 328 327 327 326 326 326 328 329 329 330 328 327 327 326 326 326 325 323 321 320 321 322 322 323 323 322 322 322 321 320 319 319 318 317 316 316 316 317 318 318 318 318 319 319 319 319 319 319 317 317 317 317 317 318 318
338 337 337 334 331 329 327 327 328 328 329 328 328 328 329 330 330 331 332 332 332 331 332 333 334 333 333 333 332 330 329 328 326 325 325 326 328 327 327 327 326 325 326 326 325 325 324 322 320 320 320 320 321 321 321 321 320 319 318 317 316 316 315 314 315 315 315 315 316 316 316 317 317 317 317 317 317 317 316 317 317 317 316 317 317
337 336 336 334 331 329 327 328 329 330 331 331 330 330 330 331 331 331 331 330 329 329 330 332 332 333 333 332 331 331 331 328 326 326 326 326 326 325 325 325 324 325 325 325 324 324 322 320 319 319 319 320 320 320 320 319 317 316 315 315 314 314 313 313 313 314 314 314 314 314 315 315 315 315 315 315 315 315 315 316 318 317 316 316 317
336 336 335 334 333 331 330 329 331 332 332 331 329 329 330 331 331 330 329 327 327 329 330 330 331 331 331 331 331 331 329 326 325 326 327 326 325 325 324 324 323 324 325 324 323 322 320 319 319 319 319 320 320 319 317 315 314 314 313 313 312 312 311 311 312 312 313 313 313 313 314 314 313 313 313 313 314 315 315 316 317 317 316 316 316
335 335 334 334 334 333 332 332 333 332 331 329 327 328 329 330 330 329 327 327 328 329 330 330 331 331 330 331 331 329 327 325 326 326 326 325 325 324 323 322 323 324 324 323 322 320 319 318 318 319 319 318 317 316 314 313 312 312 311 311 310 310 310 310 310 311 311 311 311 311 312 312 311 311 311 311 312 313 314 315 315 316 316 316 316
336 335 334 334 334 334 334 333 331 330 329 328 327 327 327 328 328 327 327 326 327 329 330 330 330 330 330 330 329 327 326 326 326 325 325 324 324 322 322 323 324 324 323 322 320 319 318 318 318 318 317 316 315 314 312 311 311 310 309 309 308 308 308 308 310 310 310 309 310 310 310 310 310 310 310 310 311 312 313 314 315 316 317 317 316
336 334 334 334 333 333 333 331 329 329 328 327 328 328 328 328 328 328 327 326 326 328 329 329 329 329 329 328 327 325 326 326 326 325 324 323 322 322 323 324 324 323 322 320 319 318 317 317 317 317 316 314 313 312 310 310 309 308 307 307 306 306 306 307 308 308 308 307 308 308 308 308 309 309 309 310 311 311 312 313 314 315 316 316 315
334 333 333 333 331 331 330 329 330 330 327 324 325 327 328 328 328 328 328 327 327 328 329 329 328 328 328 327 326 326 327 327 325 324 322 321 322 323 323 323 323 321 320 319 318 316 316 317 316 315 314 313 311 309 308 307 306 305 305 304 304 304 304 305 305 305 305 305 306 306 307 307 307 308 308 309 310 310 310 312 313 313 314 314 315
332 331 331 331 330 330 330 329 330 329 325 322 322 324 326 326 326 326 326 326 328 329 329 328 328 328 327 327 327 327 327 325 323 321 320 321 322 323 323 323 321 320 319 318 316 315 316 315 314 313 312 311 309 307 306 305 304 302 302 302 301 301 302 304 304 304 304 304 304 305 305 306 306 306 307 307 308 308 309 310 311 312 312 314 315
331 330 330 330 330 329 328 327 327 325 322 321 323 324 324 324 325 325 325 324 326 328 327 327 327 326 326 327 327 327 325 322 320 319 321 322 323 323 323 322 320 319 318 315 314 315 315 313 312 311 310 308 306 305 304 304 303 302 301 301 300 299 300 301 303 303 303 303 303 304 304 305 305 306 306 306 306 306 307 308 309 310 311 312 314
329 329 329 329 329 327 325 325 325 323 322 322 323 322 321 321 323 325 325 324 325 325 325 325 324 324 325 326 326 323 321 320 320 320 322 323 323 323 322 320 318 317 315 314 315 315 314 312 311 309 307 305 304 304 303 303 303 302 301 300 300 299 298 299 301 302 303 302 302 302 303 304 305 305 305 305 305 305 305 306 307 308 309 311 313
328 327 328 327 326 324 323 324 324 323 323 323 323 322 321 321 322 323 323 324 324 324 323 324 324 324 326 326 323 321 320 320 320 321 322 323 323 322 320 318 316 315 314 314 314 313 312 311 309 306 305 304 303 303 302 302 302 301 300 300 299 298 297 298 300 302 302 302 301 301 302 303 303 303 303 303 304 304 304 305 306 307 308 310 311
326 326 326 324 322 321 321 322 323 323 323 322 322 322 322 321 320 320 321 322 323 324 324 325 325 326 325 324 322 321 321 320 320 321 322 322 321 320 318 316 314 313 313 313 312 311 310 309 307 305 304 303 303 303 302 301 301 300 299 299 299 297 296 297 300 301 301 301 301 301 301 301 301 301 301 302 302 303 303 304 305 306 307 308 310
324 325 324 323 323 322 322 323 324 324 323 321 321 320 321 320 319 318 319 321 323 324 325 324 324 324 323 322 321 321 321 320 320 321 321 320 319 318 316 314 313 312 312 312 311 310 308 307 306 305 304 304 304 303 301 301 300 299 298 298 298 295 295 297 300 301 300 300 300 300 300 300 300 300 300 301 301 302 303 303 304 305 306 307 308
323 323 322 324 324 324 325 326 325 323 322 321 321 321 321 320 319 319 320 323 324 324 324 323 322 322 321 321 320 320 320 320 319 319 318 317 316 316 315 314 312 312 311 311 310 310 307 306 305 304 304 304 304 302 301 300 299 298 298 297 295 293 295 299 301 300 299 299 300 300 300 300 299 299 300 300 301 302 302 302 303 304 305 306 307
326 324 323 323 323 323 326 327 325 323 322 322 322 321 320 320 320 322 323 324 323 322 321 321 320 320 320 320 319 319 319 318 318 317 316 314 314 314 314 313 312 312 311 310 309 308 307 305 305 305 304 304 303 301 300 299 298 298 297 294 292 293 297 300 300 299 298 299 300 300 299 299 299 299 299 299 300 301 302 302 302 303 304 305 306
327 324 322 321 321 322 324 326 326 325 325 324 322 320 320 321 322 323 324 323 321 320 319 319 319 319 318 318 318 317 316 316 315 313 312 311 311 311 311 311 311 312 311 309 308 307 305 304 305 304 303 302 301 300 300 299 298 296 293 291 292 295 299 300 299 298 297 298 299 299 299 298 298 298 299 299 300 301 302 302 302 303 304 304 305
325 322 322 322 323 324 325 326 327 327 327 324 322 321 322 322 323 323 322 320 318 318 318 318 318 317 316 315 315 314 313 312 311 310 310 310 310 310 310 311 311 311 311 309 308 306 305 304 304 304 302 301 300 300 299 298 296 292 289 289 293 297 299 299 299 298 297 297 299 299 298 298 298 298 298 299 299 300 300 301 302 302 303 304 305
322 323 325 325 327 328 328 328 328 328 327 325 323 322 322 323 322 320 319 318 317 318 318 318 318 316 315 314 313 311 310 310 309 309 309 310 310 310 310 310 311 311 310 309 307 306 305 304 303 302 301 300 299 299 298 296 292 289 287 291 295 298 299 299 299 298 297 297 298 298 298 298 298 298 298 298 299 299 299 300 301 302 302 303 304
322 325 327 327 328 328 328 329 329 328 326 324 322 321 321 321 320 318 317 317 317 317 317 318 317 316 315 314 312 310 309 309 309 309 309 310 310 310 310 309 310 310 309 307 306 305 304 303 302 302 301 299 299 298 296 293 289 287 289 293 297 298 298 299 299 299 297 296 297 298 297 297 298 298 298 298 298 299 299 299 300 301 301 302 303
324 327 328 327 328 327 326 327 327 326 325 323 321 321 320 320 319 317 317 318 317 316 317 318 318 317 316 314 313 311 310 309 309 310 310 310 311 310 310 309 309 309 307 306 305 304 303 303 302 301 300 299 298 297 296 292 288 287 291 295 297 298 298 299 299 299 298 297 296 297 297 297 298 298 298 298 298 298 299 299 300 300 301 302 303
327 329 328 327 327 326 326 326 326 325 325 324 323 322 321 320 319 319 319 318 318 317 317 318 319 318 317 315 314 313 312 311 311 311 311 311 311 311 310 310 309 308 306 305 304 303 303 302 301 300 300 298 298 297 296 292 287 287 291 296 297 297 298 298 298 298 298 297 296 296 296 297 297 298 298 298 298 299 299 299 299 300 301 302 303
328 327 327 327 326 326 327 326 326 325 325 324 323 323 322 322 321 321 319 318 318 317 318 319 319 318 317 316 314 313 312 312 313 312 311 311 310 309 309 309 309 307 306 305 304 303 303 302 301 300 299 298 297 297 295 291 287 287 290 295 297 297 297 298 298 297 297 297 296 296 296 296 297 298 297 297 298 299 299 299 299 300 301 301 302
327 326 326 326 326 326 326 325 325 324 324 323 324 323 323 324 323 322 320 319 319 319 319 318 317 317 315 314 314 313 312 313 313 312 311 310 309 308 308 309 308 307 305 304 303 303 302 302 301 300 299 298 298 296 292 289 287 287 289 293 296 297 297 297 297 297 297 296 296 296 296 295 296 298 298 297 298 299 299 299 299 300 300 301 302
326 326 326 326 325 325 325 325 325 324 324 323 323 323 322 322 321 320 320 320 320 320 319 318 317 316 315 314 314 313 313 313 313 311 310 309 308 308 307 308 307 305 304 303 303 302 302 301 301 300 299 298 297 295 290 287 287 287 288 292 296 296 296 297 297 296 296 296 295 295 295 295 295 297 297 297 298 299 299 298 299 299 300 301 302
325 325 325 326 325 325 325 325 325 324 323 323 322 321 319 318 318 318 318 318 319 319 319 318 317 316 316 315 314 313 314 314 313 311 309 309 307 307 306 306 305 304 303 303 303 302 302 301 300 300 298 297 296 294 290 288 287 287 287 291 294 296 296 296 296 296 296 295 294 295 295 294 294 297 297 297 297 298 298 298 299 300 300 300 301
324 324 324 324 323 323 323 323 323 323 323 321 320 320 319 318 318 318 317 317 318 318 318 317 317 316 316 316 315 314 314 314 312 310 309 308 307 306 305 304 304 303 303 303 303 302 302 301 300 299 297 296 295 293 291 289 288 287 287 289 292 295 296 296 296 296 295 293 293 295 295 293 294 296 297 296 297 298 298 298 299 300 300 300 300
322 321 320 320 320 320 321 322 322 322 321 320 319 319 319 318 318 318 318 317 317 317 317 317 316 315 315 316 316 316 315 314 311 309 308 307 306 305 305 304 304 303 303 303 303 302 301 300 299 298 296 295 294 294 293 292 290 288 287 287 290 293 295 296 295 295 295 293 293 294 294 293 294 296 296 296 297 298 298 298 300 300 299 299 299
319 318 317 317 318 319 320 321 321 321 320 320 320 319 319 318 318 318 318 317 317 317 317 316 315 314 314 314 315 316 315 313 310 308 307 306 305 305 304 304 304 304 303 303 302 301 300 300 299 297 296 295 295 295 295 294 293 291 289 288 288 291 294 296 295 295 295 293 293 294 294 293 294 296 296 296 297 297 297 298 300 300 299 298 298
317 317 317 317 317 318 319 320 320 320 320 319 319 318 318 318 318 318 317 317 317 317 317 316 315 314 314 313 314 314 313 311 310 307 306 305 304 304 304 304 304 304 304 303 303 302 300 299 298 297 295 295 295 295 295 295 294 293 292 290 288 289 293 295 295 295 295 294 293 293 293 293 294 296 296 296 297 297 297 298 299 300 299 299 298
314 314 315 315 316 316 317 318 319 319 319 319 319 319 319 318 318 318 317 317 316 316 316 316 316 315 314 313 313 313 312 311 309 306 304 303 303 303 303 304 304 304 304 303 303 302 300 299 298 297 296 295 295 295 295 295 295 294 294 293 290 288 290 293 295 295 295 294 293 293 293 293 294 295 296 295 296 297 297 297 298 299 299 298 297
312 312 312 311 311 312 312 312 314 315 315 315 315 315 315 316 316 316 317 317 316 316 316 316 315 315 314 313 313 312 312 311 309 306 304 303 303 303 303 303 303 304 303 303 302 301 300 299 298 297 296 296 296 295 295 295 295 295 295 295 293 289 289 291 294 295 295 294 293 293 293 293 294 295 295 295 296 296 296 296 297 298 298 297 297
Wind_Speed
37 37 36 35 36 37 38 37 36 34 32 29 27 25 23 20 18 18 19 18 17 17 17 17 16 16 16 16 16 16 15 15 14 14 14 14 13 13 13 13 15 16 16 16 17 17 18 19 18 17 17 18 18 19 21 23 24 24 24 23 23 21 19 18 13 14 24 25 20 22 23 22 24 27 27 29 28 26 25 27 28 29 30 32 34
39 39 36 36 38 39 39 39 37 36 33 30 28 27 24 21 19 19 19 19 18 18 18 18 17 17 17 17 17 16 16 15 14 14 14 14 14 13 13 14 15 16 17 18 18 18 18 18 17 16 16 17 17 17 19 22 23 25 26 25 24 23 23 24 20 14 20 26 24 23 23 22 23 26 27 28 28 26 25 27 28 29 29 31 33
40 38 36 37 39 40 41 40 39 37 35 34 32 28 25 23 21 21 21 20 20 19 19 19 18 18 18 18 17 17 16 15 14 14 14 14 14 13 13 14 15 17 18 18 18 17 17 17 17 15 15 16 16 15 17 19 22 25 27 26 25 26 27 26 21 16 20 26 27 23 21 22 25 25 26 28 27 25 26 27 28 29 30 31 33
37 35 36 39 40 40 41 41 41 40 39 37 33 28 26 25 23 23 23 22 22 22 20 19 19 19 19 18 17 17 16 16 15 14 15 14 14 14 14 15 16 18 18 18 17 17 17 17 16 15 15 15 15 15 15 17 20 22 25 26 26 28 29 27 24 23 23 24 27 25 23 24 26 25 25 27 26 24 26 28 28 29 31 31 33
36 36 38 39 38 39 39 40 40 40 38 36 33 29 28 27 25 24 24 24 25 24 22 20 20 20 19 17 16 16 16 16 16 15 15 14 14 15 15 16 17 17 18 17 16 16 16 17 17 15 16 16 15 15 15 16 18 20 22 24 25 26 28 27 27 26 24 24 28 30 27 25 26 26 25 26 26 26 27 29 29 29 31 33 34
38 38 39 39 38 38 38 37 36 36 36 34 31 29 28 28 26 25 25 25 26 25 23 21 21 20 18 16 16 18 18 18 18 17 16 16 16 16 16 17 17 17 18 18 17 17 18 18 18 17 16 17 16 16 16 16 18 20 20 22 23 24 26 27 27 26 24 24 27 30 29 27 26 26 26 25 25 27 29 30 31 29 29 32 35
39 40 39 37 35 33 34 34 35 37 36 32 29 29 29 29 26 24 24 25 26 26 24 22 21 19 18 17 18 19 20 20 19 18 17 17 17 17 18 18 18 18 19 19 19 19 19 19 19 19 18 18 19 18 18 18 18 20 21 21 21 23 24 26 25 24 23 22 23 26 29 28 26 26 26 26 25 27 29 29 28 27 28 30 34
40 40 38 36 35 38 41 41 40 38 32 28 27 28 28 27 23 21 24 27 26 25 24 22 20 19 17 17 18 19 20 20 19 19 19 18 18 19 19 19 19 20 20 21 21 20 20 20 20 20 19 20 21 20 20 19 20 21 21 21 21 22 23 24 23 22 21 19 19 23 26 26 25 25 25 25 24 24 26 26 26 27 29 30 32
39 39 37 36 36 38 39 35 29 24 19 18 18 17 18 21 21 22 25 28 26 24 22 20 18 17 17 17 18 19 20 20 20 19 19 19 19 20 20 19 20 21 22 22 21 21 21 21 20 19 19 19 20 21 21 21 21 21 22 22 23 23 22 22 22 21 18 15 16 20 20 19 20 21 20 23 25 24 26 28 28 28 30 32 33
36 32 30 29 29 29 26 21 17 16 17 15 11 7 9 14 18 21 24 27 26 22 21 19 17 16 17 18 19 20 21 22 21 20 19 19 20 21 21 22 22 22 23 23 23 23 21 21 20 19 18 19 20 21 22 21 20 20 21 22 23 24 23 22 22 21 18 15 16 19 16 15 18 20 21 25 29 27 27 27 27 28 29 29 29
30 28 28 27 26 23 17 14 13 15 19 21 19 15 14 17 17 16 18 22 22 20 20 18 16 17 19 19 20 21 23 23 21 20 20 21 22 22 23 25 25 25 26 25 25 24 22 21 21 19 19 19 20 20 20 20 19 19 20 22 22 22 23 23 23 23 20 16 16 18 16 15 19 23 26 30 31 28 26 27 26 26 25 21 21
28 29 29 26 24 21 17 16 14 13 17 24 27 26 25 22 18 16 16 17 16 17 18 18 17 20 22 22 22 23 24 23 22 22 23 23 23 24 25 27 29 30 29 27 25 23 22 22 21 20 20 20 20 20 19 19 19 19 20 21 21 21 21 21 22 22 22 19 16 16 18 18 20 25 30 32 31 28 27 27 26 25 25 21 20
27 24 23 23 24 24 22 20 19 16 17 24 28 28 26 20 17 19 19 16 16 18 19 19 21 25 25 24 24 25 24 23 22 23 24 24 24 25 26 29 31 32 31 28 24 22 21 22 21 20 19 18 19 20 19 19 19 19 21 22 23 21 20 19 19 19 22 21 17 18 22 23 23 28 33 32 30 30 28 27 27 28 29 29 29
23 20 22 24 26 26 24 23 21 18 22 28 28 24 20 16 16 18 19 17 16 19 22 22 25 27 27 26 26 26 25 23 23 24 26 27 26 26 28 30 31 31 30 26 22 20 21 21 20 19 18 17 19 19 18 19 20 21 22 23 23 22 20 18 16 15 18 20 21 24 27 27 25 29 33 33 31 32 29 27 29 31 32 34 38
21 22 25 26 27 27 26 25 24 24 26 27 23 19 16 15 16 17 18 18 16 19 23 25 25 26 27 27 26 27 26 24 24 26 27 29 29 29 30 31 30 29 26 23 21 20 21 20 18 18 17 16 18 19 18 20 21 21 22 22 22 22 19 16 15 15 16 18 20 23 25 26 26 29 33 34 35 36 35 34 34 33 33 35 37
21 23 27 29 31 31 30 29 28 26 21 16 14 15 14 15 18 19 19 19 19 22 25 25 24 25 26 27 26 27 27 26 25 25 26 29 30 30 30 29 27 24 21 20 20 20 19 17 16 16 15 15 18 19 19 19 19 18 18 19 20 21 20 18 18 18 18 18 18 21 23 26 28 30 32 34 36 38 36 33 32 31 31 32 31
22 25 29 32 32 30 29 27 24 18 10 7 9 12 15 18 20 22 21 22 23 23 21 20 21 22 23 23 23 24 23 21 19 20 23 26 27 27 27 26 24 20 18 18 20 19 16 14 14 14 14 16 17 18 17 16 14 14 16 17 20 22 23 22 21 20 21 21 22 24 26 28 29 30 31 30 32 33 30 27 29 29 27 23 20
25 27 28 29 29 28 28 26 21 13 11 14 16 19 25 26 23 22 24 25 23 17 14 15 17 18 20 20 18 15 13 11 11 15 18 20 23 26 25 22 19 16 16 18 19 17 14 12 12 13 14 16 17 16 16 14 13 14 16 17 19 21 21 20 20 22 23 24 25 25 27 27 26 27 28 27 27 28 25 24 28 28 24 21 21
27 28 29 31 33 31 30 27 21 16 15 15 16 21 24 22 17 16 18 18 14 11 11 12 13 15 16 15 10 7 8 9 10 13 16 19 24 25 22 18 16 15 16 18 18 16 13 11 11 12 14 15 16 15 16 15 14 15 16 15 15 16 17 17 19 23 25 25 25 25 25 26 25 24 25 25 25 25 24 24 26 26 25 28 31
27 31 33 35 34 31 30 28 24 20 16 11 13 17 16 11 6 5 6 7 7 8 8 7 9 9 8 8 7 6 11 14 16 18 22 25 25 21 17 15 15 15 16 17 16 14 13 11 11 12 13 14 15 15 15 15 15 15 14 13 13 15 17 19 21 23 23 23 23 24 24 26 25 24 24 24 25 25 24 24 26 27 28 31 34
27 30 33 35 33 31 31 29 25 22 13 3 3 8 9 8 5 5 4 3 5 7 6 5 2 4 7 8 7 8 13 16 18 22 26 24 20 15 13 13 13 13 14 15 14 13 13 12 11 12 13 14 14 14 14 14 14 14 14 14 14 16 18 21 21 20 19 20 20 20 21 21 21 21 21 23 25 26 26 26 27 29 30 31 34
29 32 33 34 34 33 31 26 21 18 10 2 4 2 6 7 5 4 2 4 6 5 2 1 2 7 9 10 11 14 18 18 18 20 21 19 15 11 11 12 12 13 13 13 13 13 12 12 12 13 13 13 12 11 11 12 13 13 14 14 15 16 17 18 18 16 16 16 16 16 17 17 18 21 21 23 26 27 27 28 29 30 31 32 35
32 34 35 36 35 34 29 23 18 16 11 5 1 3 4 7 6 4 3 4 9 8 5 5 8 13 16 17 19 22 21 19 19 19 17 15 12 10 11 11 12 13 12 12 12 12 11 11 12 13 12 11 9 9 10 11 12 13 14 14 14 15 15 15 14 14 13 13 12 14 17 17 18 20 22 24 27 28 27 27 29 30 31 35 39
34 34 35 35 34 31 28 23 20 17 13 9 4 3 5 6 7 6 8 12 11 8 7 10 16 20 21 22 25 25 21 18 17 16 15 12 10 10 10 11 12 12 11 11 11 11 11 11 11 10 9 7 7 8 9 10 11 11 12 13 13 13 13 12 12 11 10 11 11 13 16 18 19 21 23 25 27 27 26 25 27 31 32 36 40
33 32 32 31 30 29 28 25 20 17 14 12 11 10 10 10 13 14 15 15 13 11 12 16 20 21 22 23 23 23 20 18 16 14 12 11 10 10 10 11 11 11 10 10 10 10 10 9 8 7 6 6 7 8 9 9 9 10 10 11 11 11 11 10 10 9 9 10 11 12 16 20 22 23 26 26 24 23 24 24 26 30 32 36 39
30 29 30 29 26 26 26 24 18 13 11 11 12 12 14 17 20 21 19 17 16 18 19 19 19 21 21 21 21 20 19 17 14 12 11 10 10 11 11 11 11 10 9 9 10 10 9 8 6 6 5 6 6 7 8 7 7 7 8 8 9 9 9 9 8 8 8 9 11 14 19 22 24 25 25 24 21 21 23 24 26 29 31 34 37
28 27 28 26 23 22 23 22 17 13 13 14 14 12 11 14 18 21 20 20 21 22 21 20 19 19 20 20 19 18 17 16 13 12 12 12 12 12 11 11 10 9 8 8 9 9 8 6 5 5 5 5 6 6 5 4 4 5 6 7 7 8 8 7 7 8 10 11 13 17 20 22 23 24 24 22 21 22 24 25 25 28 30 32 32
27 27 27 26 24 23 23 22 20 18 18 17 15 12 11 13 16 18 18 20 23 24 23 21 19 19 20 20 18 17 16 15 13 13 14 14 14 13 12 11 9 8 7 8 9 8 7 5 5 5 5 4 4 4 3 3 4 5 6 7 8 9 8 8 9 9 11 13 14 16 20 21 21 21 21 21 22 23 25 25 26 28 30 29 27
28 28 29 28 27 26 26 25 24 23 22 19 18 16 15 16 19 19 18 20 23 23 20 19 19 19 20 20 19 18 16 14 13 13 15 14 13 12 11 10 9 8 8 8 7 7 8 7 5 4 3 2 2 3 4 5 6 7 8 9 10 11 11 11 12 12 13 14 14 15 17 18 18 18 18 21 25 26 26 26 26 27 28 27 26
27 28 28 28 28 29 29 26 24 24 22 21 21 18 13 13 17 19 17 19 20 18 16 17 19 19 20 20 19 16 14 13 13 13 14 14 13 11 10 10 9 8 7 6 5 7 9 7 4 3 1 0 2 3 5 6 7 9 10 11 12 13 13 12 12 13 13 13 14 15 16 15 15 17 18 22 26 28 28 27 26 25 25 26 26
26 24 24 25 26 28 27 23 20 18 17 17 18 16 12 10 12 14 15 16 18 18 19 20 20 19 19 19 17 15 14 13 13 13 13 13 12 11 11 10 9 8 6 5 7 8 7 5 3 2 1 1 2 4 5 6 7 9 11 12 13 13 13 13 12 12 13 13 14 16 17 16 16 19 21 23 25 27 29 29 28 26 26 26 26
27 23 22 23 24 24 23 20 16 13 15 16 16 16 14 12 8 7 9 11 13 14 15 16 16 16 17 17 16 16 15 15 14 12 10 11 11 11 11 10 8 6 5 6 7 6 5 4 3 2 1 1 2 3 5 6 8 9 11 13 14 14 13 13 12 11 12 12 13 16 17 18 20 22 24 25 25 26 28 29 28 27 26 26 27
27 24 24 24 23 20 17 15 14 15 16 17 15 14 14 14 11 8 7 7 8 9 11 12 14 15 16 17 16 14 13 13 12 10 9 10 11 11 11 10 8 6 6 7 7 5 5 4 3 2 1 1 3 4 5 7 8 9 10 12 13 13 12 11 10 10 10 11 13 15 17 19 21 23 24 26 25 24 26 26 27 26 25 25 28
22 22 22 22 20 17 15 14 14 15 14 14 14 15 16 16 16 15 14 12 11 11 12 13 14 15 15 14 12 11 11 11 10 9 9 10 10 10 10 9 8 7 6 7 6 4 4 4 2 1 1 3 3 4 6 7 8 10 11 12 12 11 10 8 8 8 9 10 13 15 16 18 21 22 24 26 26 24 24 25 25 25 24 24 26
12 13 14 14 14 14 13 13 13 13 13 12 14 16 17 18 18 18 15 14 15 15 14 14 14 14 12 11 10 10 10 10 8 8 9 9 8 8 8 9 10 9 8 7 5 4 4 4 2 1 2 3 3 5 7 8 9 11 11 11 11 9 8 7 7 8 9 11 13 15 16 18 20 21 22 25 24 23 23 24 23 23 23 24 24
7 7 7 7 7 8 9 9 9 9 9 11 13 16 17 18 18 16 14 13 15 16 15 15 13 12 10 10 10 10 10 9 8 8 9 8 7 7 7 8 10 10 10 8 6 5 5 4 3 2 2 2 3 5 7 9 10 11 10 9 9 7 7 7 7 8 10 11 12 14 16 18 20 21 22 24 24 23 22 23 23 23 21 22 23
7 5 4 4 4 5 6 6 6 7 8 11 14 16 16 15 14 14 14 13 13 15 16 15 14 13 12 12 12 11 10 9 9 10 10 8 7 6 5 5 7 9 10 9 8 7 5 4 3 3 2 2 3 5 7 9 10 9 8 7 6 5 5 6 7 8 10 10 12 14 16 18 20 21 21 22 24 24 23 23 24 24 23 22 22
8 5 4 4 3 3 4 5 7 8 9 11 14 16 15 13 12 14 15 14 14 16 18 17 17 17 16 14 14 13 12 12 12 12 11 9 6 5 5 5 6 7 9 9 9 7 6 4 4 3 3 2 3 6 8 9 8 7 6 5 4 4 4 4 6 8 9 10 12 14 16 18 19 21 21 21 22 23 24 24 23 24 26 26 25
8 6 4 3 1 1 3 5 8 10 11 13 15 15 13 10 9 9 9 8 9 13 17 18 19 18 16 15 16 16 15 15 16 14 12 10 8 7 7 7 7 7 9 9 9 8 7 6 5 4 3 2 4 6 8 9 7 6 5 3 2 2 3 4 6 8 9 11 12 13 15 17 18 20 21 22 22 23 24 24 23 22 23 25 25
9 7 5 3 3 2 3 5 8 10 12 13 13 12 11 9 8 8 7 8 10 14 17 19 18 17 16 16 17 18 18 19 18 15 13 11 10 9 9 9 9 9 10 9 9 9 8 7 6 4 2 2 4 6 8 8 6 4 3 2 2 2 3 4 6 8 10 12 13 13 15 17 18 19 21 21 22 23 23 24 24 24 22 23 22
10 8 6 5 5 5 4 5 7 9 10 11 10 10 9 9 8 9 11 13 15 16 17 18 18 16 16 17 17 18 18 17 16 14 13 11 10 11 11 10 10 11 10 9 9 9 8 7 6 4 2 2 4 7 8 7 5 3 2 1 1 2 3 4 6 7 9 12 13 14 15 16 17 19 20 21 22 23 23 23 24 24 24 23 22
9 7 5 5 4 3 3 4 5 6 7 8 8 9 9 8 8 10 12 14 15 14 14 16 17 16 16 17 18 17 16 15 13 11 11 10 9 9 10 10 11 12 10 9 8 8 7 6 5 3 2 3 5 7 8 6 4 2 1 1 0 1 3 4 6 7 9 11 13 14 15 16 16 17 18 19 21 21 23 24 24 23 24 24 23
6 5 4 4 3 2 2 3 4 5 6 6 7 8 9 9 9 10 11 12 13 12 11 13 14 14 15 17 17 17 16 14 12 10 9 9 8 8 9 8 10 11 10 8 7 6 6 5 4 3 3 3 5 7 7 4 3 2 0 1 0 1 3 4 6 7 9 11 12 13 14 15 16 16 17 18 19 20 21 23 24 23 23 23 22
8 6 5 3 2 1 1 2 3 5 6 7 8 9 9 8 8 8 9 9 9 7 7 9 11 11 12 15 18 18 16 14 11 10 9 9 9 8 7 8 10 11 9 8 6 6 5 5 4 3 3 4 4 5 5 3 2 1 1 0 0 1 3 4 6 7 9 11 12 13 13 14 15 15 16 17 18 19 20 22 23 23 22 22 22
8 5 3 3 2 2 2 3 5 6 8 9 9 9 7 6 6 7 8 8 7 6 6 8 9 9 11 15 18 19 17 14 11 10 10 10 9 8 8 10 11 10 9 8 7 6 6 5 4 3 3 4 3 3 4 3 2 1 1 0 1 1 3 4 5 7 10 11 11 12 13 14 14 14 15 16 16 17 18 19 21 22 21 21 21
5 3 3 3 3 3 3 5 6 8 9 9 7 6 5 4 5 6 6 6 6 6 7 7 7 8 10 14 17 18 17 14 11 10 11 11 10 9 10 11 10 9 8 8 7 7 7 6 4 3 3 3 2 1 4 4 3 2 1 1 1 1 2 4 5 7 9 11 11 10 12 13 13 12 12 13 14 15 16 17 19 20 20 19 19
4 4 3 3 3 3 4 6 7 8 8 7 4 3 2 2 3 3 4 4 5 5 6 7 8 9 11 13 16 17 16 14 12 12 13 12 10 10 12 12 10 9 9 9 9 9 8 7 5 4 3 3 2 2 4 5 5 4 3 2 1 1 2 3 4 6 8 10 10 9 10 11 11 10 10 11 12 13 15 16 17 19 20 19 19
4 4 4 4 4 4 5 5 7 7 7 5 4 3 3 3 3 3 4 5 6 7 8 8 9 10 11 13 15 16 16 14 13 13 13 13 11 12 13 12 11 10 10 10 11 10 9 8 6 5 4 4 3 3 4 6 6 5 4 3 2 2 2 2 3 5 7 9 9 8 9 10 9 8 9 10 11 12 14 15 15 17 18 20 21
5 5 5 5 4 4 3 5 6 6 5 5 5 4 4 4 5 5 6 7 8 9 10 10 10 11 12 13 14 16 17 16 15 15 14 14 13 13 13 13 13 12 11 11 12 12 11 9 7 6 5 5 4 3 4 6 7 6 6 5 3 2 3 3 3 4 6 7 7 7 7 8 8 7 8 9 9 10 12 13 13 14 16 18 21
4 4 4 4 4 4 4 5 5 6 6 6 6 6 7 7 8 9 10 10 11 12 12 12 12 12 13 14 16 17 18 18 17 16 16 15 14 14 14 14 14 14 12 12 13 13 12 10 9 7 7 6 5 4 3 4 6 6 7 6 5 3 3 3 3 3 5 6 6 5 6 7 7 6 7 8 8 9 11 12 12 13 15 16 19
5 5 5 5 5 5 5 5 5 5 4 4 4 5 7 9 11 12 13 14 15 16 16 16 15 15 15 15 17 18 19 19 19 18 17 16 15 15 15 15 15 15 13 13 14 15 14 12 10 9 8 7 6 5 2 2 4 5 7 8 7 4 2 3 3 2 3 5 5 4 5 6 7 6 6 7 8 9 10 11 11 12 14 15 17
Wind_Direction
222 220 219 218 219 219 219 218 217 218 215 213 213 213 214 220 226 222 215 215 218 219 220 220 220 222 226 233 240 245 250 254 258 257 256 257 260 264 266 272 280 284 286 284 282 282 286 291 294 294 293 289 283 274 264 257 255 252 250 250 249 250 253 250 246 270 284 287 290 294 299 304 307 313 320 322 324 328 327 325 325 325 325 325 325
221 220 218 217 218 219 219 219 219 217 213 214 215 213 214 218 220 218 215 216 217 218 219 218 219 222 225 233 241 247 252 255 254 253 254 256 258 260 266 275 281 283 282 281 281 282 287 291 292 290 290 288 283 278 270 262 257 254 250 247 248 253 258 257 252 261 283 289 290 291 294 297 299 306 316 320 322 325 323 322 323 322 323 323 321
221 219 216 217 219 218 219 219 219 216 213 214 214 212 213 214 214 214 214 214 214 214 216 217 219 223 227 234 241 247 253 253 251 252 255 256 257 260 270 279 281 280 278 281 283 285 287 288 287 288 289 289 286 283 277 269 262 257 253 249 250 258 263 258 253 257 273 284 288 287 288 291 292 298 310 316 319 320 318 319 321 321 320 320 318
220 218 216 219 220 219 219 218 216 215 214 214 211 212 215 214 212 213 213 211 211 211 213 216 220 225 228 233 241 247 251 252 253 254 254 254 258 266 275 278 277 277 278 282 284 285 286 284 284 288 289 289 291 290 283 276 270 263 259 257 257 261 264 261 256 256 262 274 282 283 283 285 288 294 304 312 316 317 315 314 316 317 317 317 317
218 218 218 218 218 219 220 219 217 215 214 212 210 211 215 215 214 214 214 212 210 210 211 214 220 224 226 232 241 247 251 254 256 256 255 257 263 269 274 275 274 276 279 282 282 282 285 285 284 286 287 289 294 295 290 285 279 273 267 266 266 266 267 266 262 259 258 262 272 280 283 282 284 291 300 307 310 311 310 311 312 313 313 315 315
216 217 217 217 217 218 219 219 218 216 215 214 214 214 215 217 218 217 217 216 213 212 211 213 218 221 225 233 241 248 253 256 258 258 258 260 265 269 272 272 273 275 276 276 276 278 281 285 286 285 284 287 291 295 294 290 285 281 276 275 275 273 272 271 267 262 257 256 264 275 281 282 282 288 297 304 303 302 303 305 307 308 309 312 313
215 217 218 217 215 217 221 221 221 221 219 216 217 220 218 217 219 223 226 223 218 215 212 212 217 220 224 234 242 249 254 256 257 257 258 261 266 269 271 272 273 273 273 272 273 276 280 284 287 286 283 283 286 290 292 291 289 286 284 283 281 277 274 272 270 263 256 255 262 269 276 281 281 283 293 300 297 295 297 296 297 302 306 309 310
215 216 217 215 213 216 220 221 220 222 221 215 218 223 221 217 219 231 238 234 226 221 217 215 216 218 225 235 243 250 253 254 255 255 258 263 267 270 271 274 276 274 272 273 274 276 279 282 285 285 284 283 284 286 288 289 289 287 285 286 283 278 275 272 269 262 255 254 260 266 272 278 280 282 290 294 288 288 295 294 290 295 302 305 307
215 216 216 216 216 217 219 219 216 213 207 201 206 218 225 224 225 233 241 240 236 229 223 221 218 218 226 238 245 250 251 251 253 255 259 265 269 273 277 279 280 277 275 275 276 276 278 280 283 284 285 285 285 285 286 285 283 282 282 283 281 278 275 271 267 261 256 254 257 265 269 272 278 282 283 283 281 283 292 294 289 292 299 302 303
215 215 218 221 222 224 223 214 199 184 172 173 187 216 256 254 244 239 240 242 241 235 232 231 227 225 233 242 247 250 249 249 252 257 262 268 274 278 281 283 282 280 277 277 276 278 279 280 283 284 282 282 281 282 282 279 275 274 276 278 279 277 273 268 265 260 256 253 255 262 266 269 276 278 277 281 285 286 289 290 289 294 301 302 301
212 212 216 220 223 222 203 167 155 157 166 184 201 217 241 255 252 245 246 248 245 240 238 238 235 236 242 247 251 252 250 250 254 261 266 271 276 279 281 283 282 279 278 278 278 281 282 280 281 279 276 276 278 280 280 277 273 271 271 274 277 278 273 267 264 261 257 253 255 260 263 269 276 279 282 287 287 284 285 288 290 296 303 304 302
210 210 210 210 210 199 170 149 143 145 171 197 208 212 221 230 229 227 243 260 263 254 247 244 245 248 250 252 255 255 255 256 259 264 269 272 275 278 279 280 280 279 277 277 279 283 283 280 277 273 271 274 277 278 277 276 275 273 272 276 279 280 277 269 264 263 260 256 255 260 265 270 275 280 285 287 285 283 286 290 294 300 302 300 296
209 205 199 196 193 181 172 171 166 165 187 203 207 212 216 217 213 216 229 251 268 267 259 253 251 251 253 257 259 260 261 263 266 268 270 273 274 275 277 277 277 277 276 276 279 283 282 278 273 270 272 274 274 275 276 275 276 274 274 277 280 282 282 276 270 267 264 263 263 266 271 274 277 281 286 287 286 286 288 291 296 300 297 293 291
204 192 182 182 180 174 174 178 176 186 200 197 196 204 208 209 213 216 222 235 253 262 265 264 259 255 257 260 262 262 264 268 273 274 274 277 277 276 276 276 275 275 274 274 278 280 278 275 271 271 274 272 270 274 278 277 275 274 274 277 281 285 287 283 278 274 273 274 274 274 277 280 280 282 289 291 288 287 289 291 293 294 290 288 291
193 182 172 168 169 171 176 182 188 196 197 190 189 192 193 204 213 213 216 225 239 258 269 272 270 265 264 263 262 264 268 272 277 279 280 281 281 280 279 277 276 275 274 273 277 278 275 272 271 272 271 267 270 278 282 280 278 276 277 280 284 288 290 290 292 292 289 287 283 281 284 287 289 290 294 297 293 288 289 289 289 290 289 290 293
182 173 167 165 169 172 175 178 180 181 179 175 174 174 180 197 205 205 207 212 229 254 267 271 273 273 269 267 265 265 271 276 278 280 285 287 285 282 281 279 277 275 273 274 277 277 275 273 270 269 268 269 275 282 284 283 283 283 285 286 288 291 292 294 297 297 295 293 292 292 294 296 298 299 298 298 294 290 290 290 290 292 292 293 295
173 170 169 169 169 167 166 162 154 151 162 185 191 199 213 215 209 204 203 208 227 248 263 271 278 279 273 271 271 272 276 283 286 286 291 294 292 286 281 278 275 273 272 275 278 278 277 274 270 270 273 276 280 283 284 286 289 292 294 293 293 294 295 297 297 297 297 298 300 303 305 304 305 304 302 301 299 297 296 294 293 295 294 293 297
170 165 162 162 160 158 157 152 144 153 194 210 212 221 227 224 216 210 208 216 233 254 278 290 290 284 276 273 277 285 296 307 306 296 295 298 295 288 281 276 271 270 274 277 280 281 279 275 273 276 280 281 281 282 286 291 295 297 297 299 298 297 299 302 302 303 305 308 310 311 311 310 307 306 306 307 308 306 300 291 292 294 292 292 297
164 157 155 158 157 156 154 150 151 168 183 189 202 219 229 231 227 223 223 230 252 286 303 301 294 285 274 262 256 280 307 316 313 297 289 291 290 284 276 269 266 271 278 280 282 284 281 278 281 283 283 282 282 285 289 295 301 301 301 302 299 297 301 304 306 310 313 315 316 314 312 310 309 308 309 312 314 312 305 298 297 295 291 294 298
160 158 159 160 156 152 150 150 155 162 161 169 203 222 241 252 241 239 250 259 289 312 317 312 297 280 251 220 219 263 290 298 298 284 275 278 282 277 266 263 269 276 280 283 285 285 283 285 289 289 288 287 289 293 295 298 302 303 302 302 298 297 303 306 307 311 313 313 314 312 309 311 313 313 314 316 318 317 311 306 303 298 293 294 297
157 158 159 159 158 157 159 163 168 166 157 140 239 236 260 281 285 293 310 347 356 355 3 2 311 212 193 194 215 254 277 284 280 269 264 267 269 265 262 268 275 280 282 285 286 286 289 297 300 299 299 298 297 298 298 300 303 303 302 301 300 301 304 306 307 310 310 310 310 308 307 310 313 313 313 314 318 318 313 309 311 307 301 297 297
156 158 159 159 163 167 167 168 173 176 185 301 351 306 264 264 277 303 34 43 358 345 19 70 190 196 204 214 230 253 267 265 253 249 251 252 253 258 268 276 281 283 284 284 285 290 299 307 309 309 307 302 298 297 301 305 306 303 302 303 304 305 305 305 306 309 310 311 310 307 307 310 311 312 313 315 319 319 313 312 317 316 309 306 303
156 159 163 166 171 174 170 168 177 190 207 226 75 91 171 182 181 175 169 252 279 277 266 262 241 223 223 233 246 257 258 246 234 234 236 237 247 264 274 281 285 284 281 281 286 296 307 311 311 308 301 297 298 303 309 310 306 302 304 306 308 309 307 307 309 310 312 314 313 309 309 311 311 312 314 317 319 318 314 314 318 316 314 316 315
160 164 168 170 175 177 175 177 187 196 207 217 201 156 161 173 188 214 244 263 273 282 275 245 223 217 227 243 252 250 238 227 223 223 226 239 258 272 277 280 280 277 276 280 289 299 308 309 305 297 291 292 301 309 313 312 308 305 306 308 310 310 310 311 314 315 315 316 314 308 309 312 312 312 314 317 318 317 314 315 317 317 320 323 323
167 168 168 168 172 178 183 190 197 202 214 229 232 222 221 231 239 244 256 268 273 268 247 222 212 220 234 243 243 233 220 214 215 219 233 254 267 271 272 271 268 268 272 281 293 302 306 303 292 280 282 292 302 312 317 316 312 308 308 310 312 314 317 319 319 320 317 315 311 307 310 315 317 318 319 319 317 317 319 318 318 321 328 330 327
169 166 163 164 169 177 186 193 198 206 220 228 228 225 222 228 238 246 255 260 257 250 241 228 224 230 232 231 231 224 213 211 219 231 248 260 263 264 263 259 257 263 271 282 295 300 297 289 272 260 272 287 300 313 319 316 313 311 311 317 321 324 330 330 325 323 320 316 313 311 315 321 323 324 325 322 319 324 329 325 321 323 329 330 327
167 164 165 169 173 176 182 190 199 215 225 222 223 227 220 219 230 239 245 247 245 241 238 234 229 226 225 228 229 222 213 217 229 241 250 254 255 254 251 248 251 260 271 281 287 286 278 264 245 246 263 281 296 311 319 322 327 327 327 335 340 341 344 339 329 327 325 321 319 318 321 325 325 327 329 325 323 329 334 330 325 326 328 328 325
168 169 173 178 182 183 186 191 199 207 212 213 212 212 210 213 219 223 230 236 236 232 228 222 218 218 222 222 217 210 212 224 235 243 250 252 249 244 240 241 247 256 267 274 274 264 245 222 213 230 250 269 290 312 333 348 358 357 355 355 353 351 349 341 334 333 330 327 325 323 324 327 327 329 330 327 328 335 337 334 331 331 331 331 328
166 170 173 176 180 181 180 183 186 187 189 193 190 188 195 205 207 210 219 228 228 226 222 218 221 228 227 218 210 208 217 232 244 249 250 246 241 239 237 237 244 251 258 264 257 227 207 199 206 226 241 267 310 344 353 356 2 4 4 4 1 357 353 345 339 335 333 332 330 327 327 328 327 330 332 331 333 338 340 337 335 334 333 331 327
167 170 171 170 170 170 170 175 180 182 185 189 186 183 190 203 205 209 219 225 226 228 229 231 240 243 231 217 212 215 226 243 250 248 242 236 231 231 231 233 238 243 246 242 213 194 194 198 208 220 222 354 10 8 2 357 355 355 357 2 3 358 351 344 338 334 333 335 335 333 333 332 329 332 336 334 334 338 342 341 338 336 334 330 326
161 160 161 160 160 161 163 168 174 182 196 201 193 187 190 200 211 222 230 231 233 237 240 242 245 240 225 216 217 222 229 240 245 243 237 228 222 224 227 227 227 230 230 206 183 184 192 194 190 182 144 56 28 15 5 358 351 347 349 354 357 356 349 341 336 335 336 337 339 341 342 341 338 339 340 337 336 338 342 343 342 339 336 331 326
148 148 152 154 156 156 157 162 175 199 216 212 202 197 196 192 194 218 232 230 230 232 231 230 228 222 217 219 222 225 230 236 240 239 229 219 217 221 221 218 217 215 205 191 185 186 186 182 173 162 145 48 7 359 355 353 348 343 344 348 349 349 346 340 334 334 338 340 343 347 350 350 348 346 344 343 341 339 340 342 342 340 336 334 331
145 150 156 159 161 163 167 182 207 224 221 208 199 200 199 186 166 150 154 176 192 202 207 211 211 212 215 220 222 226 234 238 234 227 218 215 219 219 215 211 208 201 196 196 196 188 178 174 173 167 175 322 334 338 343 345 342 339 342 344 342 341 341 337 332 333 339 345 351 354 356 356 354 351 348 347 344 340 339 341 341 339 338 338 334
151 158 168 175 181 188 198 205 209 208 202 195 191 192 193 188 174 160 153 158 174 192 203 208 209 211 214 217 218 222 228 227 221 217 218 217 215 214 212 208 204 202 204 205 205 196 184 179 178 191 277 308 318 329 337 339 338 338 340 339 339 340 342 339 337 341 346 353 359 0 0 0 359 355 350 348 346 342 340 342 343 341 339 337 332
172 173 181 191 197 203 206 201 192 186 185 186 186 184 185 187 183 175 170 175 184 191 197 201 205 208 209 210 212 215 218 218 215 215 216 212 206 206 209 210 210 212 212 209 211 209 197 192 207 260 294 304 314 328 335 337 337 337 336 338 343 348 349 346 349 353 356 0 3 3 3 3 2 359 353 349 346 342 339 341 344 343 338 334 331
216 195 189 194 192 191 193 190 185 182 180 180 180 179 181 185 187 189 194 198 195 190 189 192 196 199 201 202 204 207 208 208 207 207 206 204 204 206 213 221 226 225 220 215 213 208 202 211 240 259 268 290 314 330 336 337 336 335 336 341 348 352 351 353 358 360 2 4 4 3 4 6 5 2 358 352 348 343 338 339 342 343 341 338 334
215 199 199 200 188 183 187 187 185 183 178 172 173 176 179 184 191 199 206 208 200 191 189 190 191 192 193 195 197 197 196 194 197 201 202 201 204 210 223 240 243 233 223 216 211 210 213 220 225 226 245 287 320 336 340 338 337 337 342 349 356 357 356 359 3 4 4 5 4 4 6 7 6 5 0 353 349 346 344 343 344 345 346 346 343
200 200 206 202 190 177 178 178 173 173 175 174 174 177 182 188 199 208 211 208 199 193 192 194 195 195 194 191 191 190 189 189 194 200 204 208 215 228 241 255 252 233 219 211 210 215 218 212 207 216 242 294 333 342 343 343 341 344 351 0 7 6 1 2 4 5 5 6 7 6 6 7 7 6 3 356 350 348 348 349 349 346 346 350 351
203 212 212 203 202 171 168 175 175 174 176 177 178 182 189 196 202 207 208 206 204 200 196 197 201 203 200 192 188 188 190 194 199 203 208 215 227 238 245 248 239 220 209 207 210 213 210 205 205 215 233 300 339 347 349 349 344 347 1 22 30 16 10 10 10 7 7 8 8 7 7 7 6 6 5 1 356 352 352 353 354 352 347 346 347
211 212 208 209 218 204 185 183 182 180 180 181 186 196 203 201 193 190 192 202 213 212 206 205 208 211 207 199 195 194 196 201 205 208 212 219 231 240 244 242 229 215 209 209 209 208 206 204 205 210 230 306 341 350 352 351 346 351 16 50 61 27 19 20 17 12 9 8 8 8 9 8 5 5 6 3 359 357 356 357 359 0 356 350 347
212 208 208 209 203 194 187 183 182 185 188 192 201 207 200 189 189 201 207 208 210 211 212 215 219 219 213 208 206 205 206 208 211 213 219 229 240 247 249 244 230 218 212 209 206 204 204 204 205 213 246 310 341 349 350 347 343 353 29 76 72 31 24 22 21 18 12 7 7 8 8 8 7 6 5 3 2 2 3 4 4 4 5 2 356
209 208 206 203 194 184 175 171 175 183 188 194 202 205 198 193 200 211 214 211 211 214 218 221 225 224 216 210 210 211 212 215 217 220 228 239 247 255 261 251 230 218 213 209 206 205 206 207 210 224 265 313 336 343 343 339 334 348 34 126 112 35 29 23 22 21 15 9 7 7 7 7 7 6 5 5 5 5 6 8 9 10 10 10 6
246 229 199 189 188 175 158 158 166 175 180 185 192 194 194 195 199 205 211 214 216 220 222 223 227 227 217 210 210 212 215 218 224 232 240 244 246 258 266 248 220 209 207 207 207 206 206 208 215 238 277 307 327 336 337 333 332 349 16 174 158 43 34 28 25 22 16 12 11 10 8 6 4 5 6 7 7 8 9 10 12 14 14 15 13
246 214 185 171 160 133 134 152 163 168 167 166 168 173 179 187 197 207 217 220 216 216 220 223 228 229 219 211 210 211 213 219 229 239 247 248 249 255 250 221 202 199 200 200 199 197 199 210 225 246 272 295 316 330 335 337 350 8 6 205 167 38 26 26 26 21 14 12 11 11 10 7 3 3 6 7 7 9 12 12 12 14 15 17 19
210 184 148 116 106 109 132 153 161 161 159 160 167 180 196 212 216 217 224 227 226 228 231 231 234 233 224 217 214 213 214 219 227 237 246 249 249 243 222 202 196 197 196 193 193 198 206 218 232 246 268 285 302 331 351 2 14 27 26 243 235 10 17 19 21 16 11 9 10 10 10 8 3 2 6 8 8 11 14 15 16 16 16 18 21
164 122 105 112 124 140 155 161 163 163 162 166 180 202 223 232 228 225 231 238 242 246 247 245 243 237 229 224 221 217 217 219 224 233 241 244 242 230 215 205 202 202 200 199 206 213 216 220 228 246 264 263 264 21 36 38 36 28 15 320 263 302 0 6 10 11 8 6 7 9 9 7 5 3 6 7 7 12 18 21 21 21 21 21 24
130 121 120 119 128 146 155 159 164 168 171 178 196 223 239 244 242 235 231 235 245 253 255 253 248 240 232 228 224 220 218 220 224 231 238 241 236 225 214 208 206 208 211 215 219 219 219 220 224 235 240 220 181 92 58 53 49 35 15 349 307 294 334 355 3 6 6 5 6 7 6 5 4 5 9 10 10 14 21 25 27 27 28 28 29
142 141 133 127 129 136 145 157 168 177 188 202 218 231 242 251 251 239 234 243 253 255 255 256 252 242 235 230 224 219 218 219 224 230 236 238 232 221 213 207 206 211 219 223 224 221 219 219 220 221 214 194 168 115 69 57 52 42 24 2 327 292 299 331 350 357 0 2 4 4 4 4 5 7 13 16 16 18 24 29 31 33 34 35 36
148 148 151 153 152 149 161 176 188 201 216 227 235 242 250 255 256 254 255 259 261 258 256 255 250 243 238 234 226 220 219 221 225 229 232 231 226 221 216 212 212 217 223 226 226 222 218 216 216 214 204 190 174 139 85 61 54 49 37 19 349 293 276 291 320 344 351 356 0 1 360 2 6 12 19 22 23 25 29 33 35 39 42 42 41
145 151 161 170 174 180 188 195 207 221 232 241 251 259 263 265 265 263 261 259 258 256 254 252 248 242 237 233 227 223 223 224 225 226 226 223 219 218 218 216 216 221 226 226 224 221 217 215 215 212 202 193 187 171 117 68 54 47 38 25 10 328 269 258 271 314 338 347 353 354 355 2 10 19 27 30 32 33 34 36 39 44 49 49 47
154 155 161 169 173 175 179 184 191 201 213 234 258 270 275 275 273 269 263 257 253 251 250 249 247 242 236 231 228 226 226 225 224 224 224 220 216 214 215 215 216 221 225 225 223 220 218 215 214 210 204 198 195 189 160 80 47 35 28 21 13 354 280 242 242 282 325 341 345 341 348 4 16 26 35 40 42 42 41 41 44 50 54 55 53